Hourly Data Report for July 22, 2011

HALIFAX STANFIELD INT'L A
NOVA SCOTIA

44°52'48.060" N
63°30'00.050" W
145.40 m
8202250
71395
YHZ

Download Data

Hourly Data (July 2011)
Hourly Data Report for July 22, 2011
TIME
LST
Temp Definition
°C
Dew Point Definition
°C
Rel Hum Definition
%
Precip. Amount Definition
mm

Wind Dir Definition
10's deg

Wind Spd Definition
km/h
Visibility Definition
km
Stn Press Definition
kPa
Hmdx Definition


Wind Chill Definition


Weather Definition


00:00 20.2 17.8 86   24 26 4.8 98.47 26   Fog
01:00 20.7 19.3 92   24 20 4.8 98.52 28   Fog
02:00 21.2 20.2 94   27 15 4.8 98.59 29   Fog
03:00 21.0 19.8 93   28 11 8.0 98.65 28   Fog
04:00 20.5 19.6 95   23 9 3.2 98.75 28   Fog
05:00 20.9 19.7 93   28 11 4.0 98.80 28   Fog
06:00 21.1 19.9 93   32 9 4.8 98.90 29   Fog
07:00 21.2 19.8 92   30 9 4.8 98.99 29   Fog
08:00 21.6 19.8 90   3 9 6.4 99.04 29   Fog
09:00 23.1 20.5 85     0 9.7 99.03 31   Haze
10:00 24.6 21.0 80   18 6 24.1 99.05 33   Mostly Cloudy
11:00 26.1 21.7 77   21 6 24.1 99.05 35   Mostly Cloudy
12:00 26.8 21.8 74   21 13 24.1 99.02 36   Mostly Cloudy
13:00 27.5 21.4 69   16 13 24.1 98.97 36   Mostly Cloudy
14:00 27.4 21.7 71   17 17 24.1 98.93 36   Mostly Cloudy
15:00 27.4 21.4 70   18 22 24.1 98.88 36   Mostly Cloudy
16:00 24.0 19.9 78   15 22 24.1 98.90 31   Mostly Cloudy
17:00 22.6 18.8 79   15 20 24.1 98.81 29   Mostly Cloudy
18:00 21.9 18.0 79   19 15 24.1 98.85 28   Mostly Cloudy
19:00 20.3 17.2 82   18 11 24.1 98.88 26   Mostly Cloudy
20:00 18.8 16.6 87   18 7 24.1 98.89     Mostly Cloudy
21:00 21.5 19.5 88   31 13 12.9 98.98 29   Mostly Cloudy
22:00 22.3 20.1 87   34 15 4.0 99.03 30   Fog
23:00 20.8 18.9 89   34 17 6.4 99.08 27   Fog

Notes on Data Quality.

Legend

  • E = Estimated
  • M = Missing
  • NA = Not Available*
  • [empty] = Indicates an unobserved value
Date modified: